sat.trackr.live / text

‹ back to catalog

STARLINK-30608

NORAD 58091 · 2023-160S

PAYLOAD ACTIVE UNKNOWN

§ Identity

Operator
Country
US
Launch date
2023-10-18
Launch site
AFETR
Launch vehicle
Mass (kg)
RCS (m²)

Purposes: comms

External: N2YO · Heavens-Above · Gunter

§ Orbital elements

Epoch: 2026-09-19T17:58:23.455776Z

Period
94.27 min
Inclination
43.0026°
Eccentricity
0.0001216
Mean motion
15.27572040 rev/d
Perigee alt
482.2 km
Apogee alt
483.9 km
Semi-major
6,861.2 km
B*
-1.1579e-5
RAAN
62.0279°
Arg perigee
268.2765°
Mean anomaly
91.7948°
Rev number
16,262

§ Raw data

STARLINK-306081 58091U 23160S   26262.74888259 -.00000581  00000+0 -11579-4 0  99962 58091  43.0026  62.0279 0001216 268.2765  91.7948 15.27572040162620

JSON: /api/v1/satellites/58091 · /tle

For live sub-satellite position, see the globe view (requires WebGL).

§ Visibility from observer

Set your observer location to see the next 7 days of passes ≥ 10°. The values pass through the URL so the page stays shareable.

No JS? Fill the form by hand. The geolocation button needs JavaScript.